Flag for Guatemala Weather past 2 weeks in Guatemala, Guatemala

Now
55 °F

Fog.


Feels Like: 52 °F
Forecast: 56 / 75 °F
Wind: 14 mph from North

Location: Guatemala Aeropuertola Aurora

Current Time: Dec 18, 2014 at 8:36:56 AM

Latest Report: Dec 18, 2014 at 8:00 AM


Visibility: 1 mi

Pressure: 30.36 "Hg

Humidity: 94%

Dew point: 54 °F

Location of GuatemalaLocation

Historic Weather in Guatemala — Graph

°F

Guatemala temperature yesterday

Maximum temperature yesterday: 72 °F (at 3:00 PM)
Minimum temperature yesterday: 55 °F (at 4:00 AM)
Average temperature yesterday: 61 °F

Past Weeks' High & Low Weather Summary

 TemperatureHumidityPressure
High84 °F (Dec 9, 12:00 PM)100% (Dec 15, 4:00 AM)30.42 "Hg (Dec 15, 4:00 AM)
Low54 °F (Dec 11, 3:00 AM)35% (Dec 9, 12:00 PM)30.18 "Hg (Dec 8, 4:00 PM)
Average62 °F76%30.31 "Hg
* Reported Dec 3 7:00 AM — Dec 18 7:02 AM, Guatemala, Weather by CustomWeather, © 2014

Note: Actual official high and low records may vary slightly from our data, if they occured in-between our weather recording intervals... More about our weather records

Advertising

Guatemala weather history for previous 24 hours

 ConditionsComfort  
Time TempWeatherWind HumidityBarometerVisibility
7:02 AM
Dec 18
N/AFog.7 mphN/AN/A3 mi
6:00 AM55 °FClear.7 mph88%30.30 "Hg10 mi
5:00 AM57 °FClear.9 mph88%30.30 "Hg10 mi
4:00 AM55 °FClear.9 mph94%30.30 "Hg10 mi
3:00 AM55 °FClear.12 mph94%30.30 "Hg10 mi
2:00 AM55 °FClear.12 mph88%30.30 "Hg10 mi
1:00 AM55 °FClear.9 mph88%30.33 "Hg10 mi
12:00 AM57 °FClear.9 mph82%30.36 "Hg10 mi
11:00 PM
Dec 17
59 °FPassing clouds.9 mph77%30.36 "HgN/A
10:00 PM59 °FPassing clouds.12 mph77%30.39 "HgN/A
9:00 PM59 °FPassing clouds.12 mph77%30.36 "HgN/A
8:00 PM61 °FClear.12 mph77%30.36 "Hg10 mi
7:00 PM61 °FClear.12 mph77%30.33 "Hg10 mi
6:00 PM63 °FClear.9 mph73%30.30 "Hg10 mi
5:00 PM66 °FScattered clouds.14 mph60%30.30 "HgN/A
4:00 PM68 °FPartly sunny.12 mph60%30.27 "HgN/A
3:00 PM72 °FPartly sunny.14 mph50%30.27 "HgN/A
2:00 PM70 °FScattered clouds.12 mph57%30.30 "HgN/A
1:00 PM70 °FSunny.14 mph57%30.33 "Hg10 mi
12:00 PM68 °FPassing clouds.14 mph60%30.36 "HgN/A
11:00 AM66 °FPassing clouds.14 mph56%30.39 "HgN/A
10:00 AM64 °FPassing clouds.12 mph64%30.42 "HgN/A
9:00 AM61 °FScattered clouds.12 mph77%30.42 "HgN/A
8:00 AM57 °FScattered clouds.12 mph88%30.42 "HgN/A
Weather by CustomWeather, © 2014

See weather overviewHow to use our weather pages